Starlink 3551

operational
NORAD ID: 51887 Int'l Des: 2022-022 Owner: SPXS Country: US Constellation: starlink
LEOCIRCULAR

Über Starlink 3551

Beschreibung wird geladen...

Live-Position

3D-Globus wird geladen...

Nächste Überflüge

Höhenverlauf

Altitude vs Time

uPlot chart will show altitude changes over time

Zweizeiliger Elementsatz

1 51887U 22022AM 25261.20345244 .00000196 00000-0 30420-4 0 9996
2 51887 53.2178 53.4401 0001302 92.9795 267.1346 15.08851604197207
Epoch: 18. Sept. 2025 • Age: 15 hours

Aktueller Status

Höhe 544.9 km
Geschwindigkeit 7.60 km/s
Subsatellitenpunkt 51.19°N, 129.62°W
Startdatum 3. März 2022
Alter 3.5 years
Typ internet

Technische Details

Klassifizierung Payload
Masse 297.00 kg
Trockenmasse 275.00 kg
Gesamtmasse 297.00 kg
Länge 0.20 m
Durchmesser 2.80 m
Spannweite 9.00 m
Form Box + pan
Hersteller SPXS
Bus-Typ Starlink
Phasenstatus In Orbit
Besitzer/Staat SPXS/US

Große Konstellationen

Loading constellations...